User: anonymous   Login
Location: Unspecified
(0.0000°N, 0.0000°E)
Time: 11:28:16
(UTC+00:00)
Language:

TRS 6 - Orbit

View from above orbital plane
View from above orbital plane
View from above satellite
View from above satellite

Ground track
Ground track

The orbit data is extracted from the following two-line orbital elements,

1   608U 63014C   19023.17535789 +.00000035 +00000-0 +15354-1 0  9995
2   608 087.3214 091.3693 0070902 270.3223 088.9507 08.65284433759774
Epoch (UTC): 23 January 2019 04:12:30
Eccentricity: 0.0070902
inclination: 87.3214°
perigee height: 3573 km
apogee height: 3715 km
right ascension of ascending node: 91.3693°
argument of perigee: 270.3223°
revolutions per day: 8.65284433
mean anomaly at epoch: 88.9507°
orbit number at epoch: 75977

The dashed part of the orbit path shows where the satellite is in the earth's shadow,  

DLR